CAPE
3989 3562 3719 4154 4097 3804 3354 2490 1428 1127 1306 775 466 476 1523 1760 2056 1778 1590 1628 1339 1902 2260 1986 2614 3225 2302 2368 3148 3886 2998 2797 2842 2558 2620 2730 2185 1622 1163 1304 1487 2083
3596 3405 3498 2891 3694 4580 4564 3632 2727 1919 1101 1676 1492 842 747 1697 1643 1320 1326 1224 1487 1912 1975 1724 2228 2678 2969 2619 2917 3591 4429 3528 3338 2777 2908 3004 2802 2106 1602 1764 2662 2450
2644 2702 2452 2406 2007 2258 3693 3568 3684 3504 2289 2112 1886 1787 826 831 804 1574 1508 1760 1742 1226 1921 1998 1730 2415 2347 2278 3064 3829 3942 4132 3883 3308 3406 3162 2952 2452 3622 2830 2430 2690
2663 2552 2106 2003 2010 2034 1387 1302 2747 3176 2700 2390 1545 810 442 223 962 2027 1880 2120 1649 1589 1705 1826 2109 1528 832 1010 2498 3162 2412 2690 3601 3928 3362 3236 3436 3276 3120 3194 2498 2369
1179 1789 1978 1634 1497 3567 3276 1541 1342 935 1018 1585 1393 752 691 1056 1215 592 2446 2284 2422 2181 2138 2020 2154 2072 2318 2438 2434 3016 4220 3943 2644 2090 2516 2957 3643 3458 3392 2902 2708 2568
987 999 1534 3550 3274 2582 1715 1096 833 1098 954 508 513 504 445 2395 1691 1830 2379 2035 1696 2240 2292 2164 2655 2649 2442 1946 2006 2594 2901 1923 2145 2269 2712 3408 3400 3051 2960 2652 2366 2204
372 1556 2015 3431 4023 3874 2858 1768 1345 1152 576 538 1102 592 2605 2791 2094 2543 3136 3251 3462 3264 2786 2855 2969 2884 3002 3513 3728 3186 2252 2034 1978 1979 2412 2488 2599 2555 2311 2218 2320 2367
2774 3179 4256 4219 3664 2036 2063 1937 1556 1243 1342 1651 1463 3728 2048 2150 3342 3210 3332 3914 3327 3492 3559 3283 3443 4054 3581 4064 3992 3940 2904 2687 2467 1985 1952 2163 2178 2117 2038 2254 2696 2922
3709 4240 4112 4064 2554 2292 1792 1746 1522 1212 1647 3129 2774 1325 3258 3325 3651 3594 4122 4334 4204 4031 4067 3816 3972 3580 3226 3498 3140 3311 2698 2350 2172 1990 2042 2081 2133 2126 2524 2745 2804 2596
4768 4519 4457 3778 3172 2335 3152 2638 2008 1855 5260 5442 4946 3580 2879 3688 3781 3590 4174 3941 3084 2800 2881 3417 3238 3411 3253 3334 3059 3055 2529 2330 2211 2142 2074 2042 1982 1960 2059 1686 1424 1336
4417 4502 4355 4073 3163 3317 3190 3493 4823 4688 4966 4406 4628 4030 3846 3607 3080 3126 2995 2987 2276 2330 2440 3105 3030 3008 3046 2436 2674 2881 2829 2358 2321 2139 1982 1902 1804 1893 1778 1622 1614 1634
4842 4617 4307 4420 4503 4074 3779 4625 4748 4377 3811 3942 3702 3577 3557 3058 3007 2768 2417 2214 2252 2215 1992 2496 2682 2621 2260 2468 2364 2256 2213 2260 2194 1628 1308 1312 1441 1305 1146 1224 1428 1278
4470 5308 5572 5250 5128 4536 4121 3958 3755 3522 3631 3498 3320 3280 3155 3402 2910 2170 1979 1798 2172 1908 1674 1691 1632 1416 1322 1160 1212 1230 1252 1256 1147 758 644 637 687 714 706 725 687 699
5447 4644 4696 4738 4522 4144 3524 3192 3259 3292 3182 3186 2994 2781 2570 2094 2052 1925 1706 1475 1228 1153 1087 1118 1006 428 331 120 210 334 372 426 474 362 249 136 94 66 8 3 8 36
4262 3963 3874 3831 3618 3571 3368 3342 3133 2934 2650 2315 2199 1902 1630 1613 1501 1450 1386 1304 1078 976 1006 736 284 19 0 0 0 0 0 0 0 6 12 23 12 1 10 30 20 18
4034 3728 3601 3456 3242 3028 2763 2722 2504 2099 2229 2072 1688 1553 1212 1180 1271 1158 1022 950 782 714 533 104 0 0 0 0 0 0 0 0 0 0 0 0 4 14 20 41 34 2
3496 3166 3114 2851 2729 2568 2293 2326 1968 1769 1380 1489 1199 1118 1117 1127 977 778 669 514 405 266 158 0 0 0 0 0 0 0 0 0 0 0 0 0 0 4 6 18 17 12
2989 2743 2567 2482 2293 2010 1842 1685 1446 1372 1198 955 859 657 835 570 572 369 303 266 195 224 102 0 0 0 0 0 0 0 0 0 0 0 0 0 0 6 10 14 18 19
2738 2402 2271 2006 1702 1441 1275 1175 1056 898 756 576 443 441 456 397 334 220 274 244 216 169 62 3 2 0 0 0 0 0 0 0 0 0 0 1 1 3 11 24 37 49
2280 1862 1526 1340 1245 1198 1078 875 689 610 448 412 410 380 267 184 168 224 189 221 118 15 52 1 0 0 0 0 0 0 0 0 0 0 0 1 2 4 6 12 20 33
1526 1374 1180 1102 1066 888 638 514 467 354 249 242 259 184 234 235 183 158 61 20 5 1 1 0 0 0 0 0 0 0 0 0 0 0 0 2 4 7 12 15 18 21
1155 992 990 802 699 535 416 336 277 162 97 159 237 232 203 118 12 72 16 2 0 0 0 3 2 0 0 0 0 0 0 0 0 1 2 4 6 6 11 18 20 23
980 830 699 594 439 339 184 149 130 67 88 157 161 163 26 2 4 0 10 3 0 0 5 6 11 5 1 0 0 0 0 0 2 3 3 2 4 6 10 12 11 17
753 601 446 307 226 126 68 83 78 48 35 23 39 11 0 0 3 3 1 6 2 4 12 9 12 11 6 0 0 0 0 1 2 1 2 4 1 1 0 0 0 2
523 431 250 150 54 24 30 26 16 10 4 8 1 0 0 0 0 2 10 12 16 12 10 20 20 18 2 0 0 0 0 0 0 1 1 1 3 1 1 1 0 0
236 179 128 70 20 10 12 6 5 7 8 9 4 2 0 4 2 5 10 10 24 22 18 25 18 16 11 2 0 0 1 0 0 0 0 0 0 0 0 0 2 4
Wind_Speed
15 16 16 15 13 13 10 10 13 15 17 17 16 16 20 20 17 17 15 15 18 20 25 24 23 23 25 25 23 23 25 26 25 24 25 26 26 27 27 28 28 31
14 15 13 14 16 18 17 15 14 15 14 14 16 16 15 22 27 26 24 23 23 25 27 29 27 25 25 26 26 27 30 29 28 27 28 28 29 29 29 31 37 34
16 15 16 16 15 15 18 19 18 17 15 14 15 18 18 22 28 31 31 29 24 21 22 25 27 28 28 24 25 29 30 31 30 28 30 29 29 31 36 37 35 35
18 17 17 18 17 16 15 16 22 22 23 22 23 22 23 21 20 28 26 28 27 25 23 23 24 25 27 29 28 29 28 30 31 32 31 29 30 36 39 38 36 34
19 19 19 17 15 17 20 21 20 19 22 25 25 28 28 26 25 25 31 32 33 31 29 29 27 26 26 28 30 31 34 33 37 38 38 39 38 38 41 40 40 40
19 16 15 17 19 21 22 23 25 27 29 27 27 26 25 28 28 26 25 28 33 35 33 30 29 27 26 25 27 30 36 38 37 37 37 38 40 40 39 40 39 38
14 15 16 15 21 24 24 25 23 22 22 22 23 26 28 25 25 28 27 27 30 31 33 33 33 30 29 29 29 35 38 38 38 37 35 32 33 31 34 34 36 37
9 7 11 17 22 25 28 27 25 23 22 22 23 29 31 32 32 31 28 29 29 32 31 31 32 32 30 31 32 38 37 38 41 40 34 31 33 31 32 36 37 38
13 15 14 15 20 24 27 28 28 26 25 23 23 25 29 31 32 31 31 30 30 31 32 31 32 31 29 32 34 38 39 40 42 45 42 37 37 37 36 39 40 39
16 16 18 19 20 22 25 26 24 27 29 30 30 31 30 33 32 32 33 34 32 31 31 33 34 35 34 35 36 37 37 37 39 40 40 39 40 40 41 42 41 39
18 19 20 20 21 23 26 31 32 33 35 36 36 37 35 34 36 35 34 35 34 33 32 34 37 37 37 35 35 37 36 37 38 40 41 43 42 41 42 42 42 45
20 21 21 21 23 26 27 31 34 37 38 40 41 40 39 39 37 35 31 31 33 33 34 36 37 41 40 37 36 36 38 40 42 42 43 44 44 43 43 43 44 44
19 20 22 24 25 27 30 34 34 37 39 38 38 38 38 38 37 37 37 34 37 38 38 40 41 42 41 39 39 40 41 42 45 47 47 46 45 44 42 43 43 43
21 21 22 22 27 29 31 33 35 38 39 39 40 37 39 39 37 36 37 39 39 40 41 42 46 47 43 43 43 43 43 43 42 42 42 43 nan nan nan nan nan nan
20 22 25 28 29 31 33 35 37 39 42 41 40 39 38 38 38 38 39 40 41 41 42 46 50 nan nan nan nan nan nan nan nan nan nan nan nan nan nan nan nan nan
23 25 28 29 31 33 35 36 38 39 40 41 39 39 38 37 37 39 40 41 41 44 44 51 nan nan nan nan nan nan nan nan nan nan nan nan nan nan nan nan nan nan
25 27 29 31 32 33 37 39 38 39 39 39 39 38 38 38 40 40 41 41 42 44 45 nan nan nan nan nan nan nan nan nan nan nan nan nan nan nan nan nan nan nan
26 29 31 33 34 34 34 37 41 40 40 38 37 37 38 39 41 41 41 41 42 40 44 nan nan nan nan nan nan nan nan nan nan nan nan nan nan nan nan nan nan nan
30 31 32 34 35 37 39 41 41 40 39 37 37 38 39 40 40 40 41 40 39 37 nan nan nan nan nan nan nan nan nan nan nan nan nan nan nan nan nan nan nan nan
28 32 34 35 38 40 41 41 41 39 39 37 38 39 41 40 40 39 38 37 37 nan nan nan nan nan nan nan nan nan nan nan nan nan nan nan nan nan nan nan nan nan
32 34 36 38 39 41 42 41 40 39 39 38 39 40 40 40 38 36 nan nan nan nan nan nan nan nan nan nan nan nan nan nan nan nan nan nan nan nan nan nan nan nan
34 36 38 39 41 42 42 41 40 39 nan 38 40 41 40 37 nan nan nan nan nan nan nan nan nan nan nan nan nan nan nan nan nan nan nan nan nan nan nan nan nan nan
37 39 40 41 43 44 42 41 39 nan nan 38 39 40 nan nan nan nan nan nan nan nan nan nan nan nan nan nan nan nan nan nan nan nan nan nan nan nan nan nan nan nan
39 40 42 43 44 44 nan nan nan nan nan nan nan nan nan nan nan nan nan nan nan nan nan nan nan nan nan nan nan nan nan nan nan nan nan nan nan nan nan nan nan nan
41 43 44 45 nan nan nan nan nan nan nan nan nan nan nan nan nan nan nan nan nan nan nan nan nan nan nan nan nan nan nan nan nan nan nan nan nan nan nan nan nan nan
44 45 47 nan nan nan nan nan nan nan nan nan nan nan nan nan nan nan nan nan nan nan nan nan nan nan nan nan nan nan nan nan nan nan nan nan nan nan nan nan nan nan
Wind_Direction
14 12 11 5 2 360 359 357 8 15 6 9 9 356 350 352 344 335 340 344 343 345 345 339 335 335 335 331 329 326 327 326 323 322 319 316 313 312 313 314 314 305
20 21 18 19 2 354 353 359 12 18 10 357 347 342 350 340 349 350 345 344 349 351 343 342 338 335 331 329 326 322 321 321 319 315 312 313 313 314 314 309 303 307
24 22 21 23 18 356 347 353 360 3 0 5 345 340 350 356 354 351 341 337 338 340 330 327 327 326 327 326 323 318 315 313 310 308 305 309 312 310 300 298 305 307
14 17 14 12 1 356 352 352 355 353 357 356 357 359 355 4 336 325 331 329 327 331 333 329 326 328 331 335 331 322 320 316 313 301 295 298 298 301 302 302 303 301
15 7 4 2 357 343 342 359 13 7 358 351 352 350 353 352 343 333 329 329 326 328 331 332 333 332 326 323 320 319 317 313 300 305 313 313 315 309 307 309 310 310
10 3 354 349 353 352 352 8 10 6 1 1 360 356 346 335 327 324 328 328 329 330 327 327 324 320 322 324 320 319 310 310 315 315 318 318 314 312 311 311 311 312
22 356 349 352 346 339 351 5 9 6 357 352 337 332 316 319 324 324 330 326 319 320 323 323 323 323 319 315 311 306 307 308 306 305 298 298 298 300 304 306 308 309
10 11 354 344 346 348 353 3 7 355 341 338 343 333 330 326 327 328 329 324 323 323 321 320 321 320 315 310 307 304 305 305 303 295 298 305 303 306 308 306 305 308
356 353 346 347 350 349 353 356 353 351 342 336 340 353 326 322 320 325 320 319 318 319 322 320 315 309 309 306 304 305 309 312 312 315 318 315 310 308 306 304 303 302
344 339 343 345 347 347 346 346 342 332 320 326 326 324 323 322 319 320 320 318 319 321 320 319 314 308 307 303 305 309 309 310 310 308 308 305 299 297 295 294 298 300
334 334 338 339 339 336 338 337 326 324 324 323 325 322 320 324 326 324 323 324 323 317 311 311 310 310 307 308 312 312 311 306 304 305 304 303 307 308 309 307 310 310
326 327 329 326 328 331 331 322 328 328 329 329 326 327 326 326 323 320 319 314 309 310 309 306 305 306 308 309 307 308 308 307 304 301 301 302 304 308 307 306 304 303
318 314 317 322 323 321 322 324 326 326 325 326 326 325 325 321 321 320 319 313 309 307 306 305 306 302 299 298 298 297 297 297 299 301 301 301 301 299 298 297 298 297
307 314 316 322 325 326 325 325 328 326 325 325 324 323 321 316 313 313 312 310 309 309 308 310 303 300 299 298 298 297 296 297 296 297 299 301 nan nan nan nan nan nan
312 319 327 329 328 327 325 324 324 326 326 326 324 323 319 315 316 314 312 311 309 310 309 305 300 nan nan nan nan nan nan nan nan nan nan nan nan nan nan nan nan nan
321 325 325 325 324 325 325 324 326 326 323 320 318 318 317 317 315 311 310 308 309 306 305 301 nan nan nan nan nan nan nan nan nan nan nan nan nan nan nan nan nan nan
323 323 321 322 321 321 323 321 320 321 320 319 318 315 315 313 310 308 306 306 305 304 302 nan nan nan nan nan nan nan nan nan nan nan nan nan nan nan nan nan nan nan
321 321 322 322 322 317 314 317 322 321 319 318 317 315 312 311 308 307 306 303 301 299 299 nan nan nan nan nan nan nan nan nan nan nan nan nan nan nan nan nan nan nan
325 322 317 315 314 317 318 320 320 319 317 316 315 314 312 309 308 306 301 300 298 299 nan nan nan nan nan nan nan nan nan nan nan nan nan nan nan nan nan nan nan nan
312 311 313 316 316 316 317 319 318 317 315 316 316 315 312 310 305 303 301 300 299 nan nan nan nan nan nan nan nan nan nan nan nan nan nan nan nan nan nan nan nan nan
313 315 315 315 314 315 317 319 317 316 314 315 315 312 310 308 307 304 nan nan nan nan nan nan nan nan nan nan nan nan nan nan nan nan nan nan nan nan nan nan nan nan
312 313 313 314 314 315 317 317 315 313 nan 314 314 313 310 311 nan nan nan nan nan nan nan nan nan nan nan nan nan nan nan nan nan nan nan nan nan nan nan nan nan nan
310 311 312 312 314 315 316 315 314 nan nan 317 316 313 nan nan nan nan nan nan nan nan nan nan nan nan nan nan nan nan nan nan nan nan nan nan nan nan nan nan nan nan
308 310 310 310 313 315 nan nan nan nan nan nan nan nan nan nan nan nan nan nan nan nan nan nan nan nan nan nan nan nan nan nan nan nan nan nan nan nan nan nan nan nan
307 309 308 309 nan nan nan nan nan nan nan nan nan nan nan nan nan nan nan nan nan nan nan nan nan nan nan nan nan nan nan nan nan nan nan nan nan nan nan nan nan nan
305 306 306 nan nan nan nan nan nan nan nan nan nan nan nan nan nan nan nan nan nan nan nan nan nan nan nan nan nan nan nan nan nan nan nan nan nan nan nan nan nan nan